Sigonella, Italy

10:07 PM CEST on May 24, 2017 (GMT +0200)
Sigonella Mil

Weather History for LICZ - February, 2013

Change the Weather History Date:

Monday, February 11, 2013

  Actual Average Record
Temperature  
Mean Temperature 47 °F -  
Max Temperature 61 °F 62 °F 66 °F (2014)
Min Temperature 33 °F 42 °F 32 °F (2008)
Degree Days  
Heating Degree Days 18    
Moisture  
Dew Point 38 °F    
Average Humidity 74    
Maximum Humidity 100    
Minimum Humidity 26    
Precipitation  
Precipitation 0.00 in 0.05 in - ()
Sea Level Pressure  
Sea Level Pressure 29.96 in    
Wind  
Wind Speed 6 mph ()    
Max Wind Speed 21 mph    
Max Gust Speed -    
Visibility 6.2 miles    
Events Rain    
Averages and records for this station are not official NWS values.
T = Trace of Precipitation, MM = Missing Value Source: Averaged Metar Reports

Daily Weather History Graph

Daily Weather History Graph

Search for Another Location

Airport or City:

Trip Planner

Search our weather history database for the weather conditions in past years. The results will help you decide how hot, cold, wet, or windy it might be!

Date:

Astronomy

Feb. 11, 2013 Rise Set
Actual Time 6:53 AM CET 5:35 PM CET
Civil Twilight 6:27 AM CET 6:02 PM CET
Nautical Twilight 5:56 AM CET 6:33 PM CET
Astronomical Twilight 5:25 AM CET 7:03 PM CET
Moon 7:11 AM CET (2/11) 7:10 PM CET (2/11)
Length of Visible Light 11h 35m
Length of Day
10h 41m
New Moon, 2% of the Moon is Illuminated
Feb 11
New Moon
Feb 17
First Quarter
Feb 25
Full
Mar 4
Last Quarter
Mar 11
New

Hourly Weather History & Observations

Time (CET) Temp. Windchill Dew Point Humidity Pressure Visibility Wind Dir Wind Speed Gust Speed Precip Events Conditions
12:55 AM 39.2 °F 33.0 °F 33.8 °F 81% 30.04 in - WNW 9.2 mph - N/A   Clear
1:00 AM 38 °F - 34 °F 79% 30.06 in 6 mi WNW 9.2 mph - -  
1:55 AM 39.2 °F 33.0 °F 33.8 °F 81% 30.04 in - WNW 9.2 mph - N/A   Clear
2:55 AM 35.6 °F 31.7 °F 35.6 °F 100% 30.04 in 6.2 mi WNW 4.6 mph - N/A   Partly Cloudy
3:55 AM 35.6 °F 30.7 °F 35.6 °F 100% 30.04 in 6.2 mi NW 5.8 mph - N/A   Partly Cloudy
4:00 AM 36 °F - 35 °F 97% 30.04 in 6 mi NW 5.8 mph - -   Scattered Clouds
4:55 AM 35.6 °F 31.7 °F 33.8 °F 93% 30.04 in 6.2 mi WNW 4.6 mph - N/A   Partly Cloudy
5:55 AM 37.4 °F - 37.4 °F 100% 30.04 in 6.2 mi Calm Calm - N/A Rain Light Rain
6:55 AM 37.4 °F 34.9 °F 37.4 °F 100% 30.01 in 6.2 mi West 3.5 mph - N/A Rain Light Rain
7:00 AM 37 °F - 37 °F 100% 30.04 in 6 mi West 3.5 mph - - Rain Light Rain
7:55 AM 39.2 °F 37.0 °F 39.2 °F 100% 30.04 in 6.2 mi WSW 3.5 mph - N/A   Scattered Clouds
8:55 AM 46.4 °F 44.3 °F 39.2 °F 76% 29.98 in 6.2 mi NW 4.6 mph - N/A   Scattered Clouds
9:55 AM 50.0 °F - 41.0 °F 71% 29.98 in 6.2 mi WNW 2.3 mph - N/A   Scattered Clouds
10:00 AM 50 °F - 42 °F 65% 30.00 in 9 mi WNW 2.3 mph - -   Partly Cloudy
10:55 AM 53.6 °F - 44.6 °F 72% 29.98 in 6.2 mi WNW 2.3 mph - N/A   Mostly Cloudy
11:55 AM 55.4 °F - 44.6 °F 67% 29.95 in 6.2 mi NNW 2.3 mph - N/A   Mostly Cloudy
12:55 PM 59.0 °F - 33.8 °F 39% 29.95 in 6.2 mi WSW 16.1 mph - N/A   Scattered Clouds
1:00 PM 59 °F - 33 °F 26% 29.95 in 6 mi WSW 16.1 mph - -   Partly Cloudy
1:55 PM 57.2 °F - 33.8 °F 41% 29.92 in 6.2 mi SW 15.0 mph - N/A   Mostly Cloudy
2:55 PM 59.0 °F - 39.2 °F 48% 29.89 in 6.2 mi WSW 20.7 mph - N/A   Mostly Cloudy
3:55 PM 57.2 °F - 33.8 °F 41% 29.89 in 6.2 mi WSW 19.6 mph - N/A   Mostly Cloudy
4:00 PM 58 °F - 35 °F 29% 29.91 in 6 mi WSW 19.6 mph - -   Partly Cloudy
4:55 PM 55.4 °F - 33.8 °F 44% 29.89 in 6.2 mi WSW 10.4 mph - N/A   Mostly Cloudy
5:55 PM 53.6 °F - 42.8 °F 67% 29.89 in 6.2 mi WSW 6.9 mph - N/A   Mostly Cloudy
6:55 PM 50.0 °F - 42.8 °F 76% 29.89 in 6.2 mi West 4.6 mph - N/A   Mostly Cloudy
7:00 PM 50 °F - 42 °F 66% 29.89 in 6 mi West 4.6 mph - -   Partly Cloudy
7:55 PM 48.2 °F - 42.8 °F 82% 29.86 in 6.2 mi NW 2.3 mph - N/A   Mostly Cloudy
8:55 PM 46.4 °F - 42.8 °F 87% 29.86 in 6.2 mi ENE 2.3 mph - N/A   Mostly Cloudy
9:55 PM 46.4 °F - 42.8 °F 87% 29.86 in 6.2 mi North 2.3 mph - N/A   Mostly Cloudy
10:00 PM 46 °F - 44 °F 88% 29.88 in 6 mi North 2.3 mph - -   Partly Cloudy
11:55 PM 44.6 °F - 44.6 °F 100% 29.86 in 6.2 mi ENE 2.3 mph - N/A   Mostly Cloudy